TimeEDT,TemperatureF,Dew PointF,Humidity,Sea Level PressureIn,VisibilityMPH,Wind Direction,Wind SpeedMPH,Gust SpeedMPH,PrecipitationIn,Events,Conditions,WindDirDegrees,DateUTC
12:54 AM,62.1,59.0,90,29.93,3.0,ENE,5.8,-,N/A,,Overcast,70,2012-10-03 04:54:00
1:52 AM,62.6,59.0,88,29.93,3.0,ENE,5.8,-,N/A,,Mostly Cloudy,70,2012-10-03 05:52:00
1:54 AM,62.1,59.0,90,29.93,3.0,East,5.8,-,N/A,,Mostly Cloudy,80,2012-10-03 05:54:00
2:54 AM,62.1,59.0,90,29.93,4.0,East,5.8,-,N/A,,Mostly Cloudy,80,2012-10-03 06:54:00
3:54 AM,62.1,59.0,90,29.93,6.0,ESE,5.8,-,N/A,,Mostly Cloudy,120,2012-10-03 07:54:00
4:54 AM,62.1,59.0,90,29.95,7.0,Calm,Calm,-,N/A,,Mostly Cloudy,0,2012-10-03 08:54:00
5:54 AM,61.0,59.0,93,29.96,10.0,North,4.6,-,N/A,,Mostly Cloudy,350,2012-10-03 09:54:00
6:20 AM,60.8,59.0,94,29.97,4.0,NNE,4.6,-,N/A,,Mostly Cloudy,30,2012-10-03 10:20:00
6:54 AM,62.1,59.0,90,29.97,3.0,NE,4.6,-,N/A,,Overcast,40,2012-10-03 10:54:00
7:54 AM,62.1,60.1,93,29.98,3.0,Calm,Calm,-,N/A,,Mostly Cloudy,0,2012-10-03 11:54:00
8:15 AM,62.6,60.8,94,30.00,3.0,Calm,Calm,-,N/A,,Overcast,0,2012-10-03 12:15:00
8:54 AM,63.0,60.1,90,30.00,6.0,Calm,Calm,-,N/A,,Overcast,0,2012-10-03 12:54:00
9:51 AM,64.4,60.8,88,30.01,10.0,Calm,Calm,-,N/A,,Overcast,0,2012-10-03 13:51:00
9:54 AM,64.9,61.0,87,30.01,10.0,Calm,Calm,-,N/A,,Overcast,0,2012-10-03 13:54:00
10:54 AM,66.9,61.0,81,30.02,10.0,Calm,Calm,-,N/A,,Overcast,0,2012-10-03 14:54:00
11:51 AM,68.0,62.6,83,30.03,10.0,SW,4.6,-,N/A,,Overcast,220,2012-10-03 15:51:00
11:54 AM,68.0,62.1,81,30.02,10.0,WSW,4.6,-,N/A,,Overcast,240,2012-10-03 15:54:00
12:54 PM,68.0,63.0,84,30.03,8.0,SW,12.7,-,0.00,,Light Drizzle,220,2012-10-03 16:54:00
1:05 PM,66.2,62.6,88,30.03,1.0,SW,12.7,19.6,0.00,,Light Drizzle,230,2012-10-03 17:05:00
1:20 PM,66.2,62.6,88,30.04,6.0,WSW,16.1,23.0,0.00,,Light Drizzle,240,2012-10-03 17:20:00
1:54 PM,66.9,63.0,87,30.04,10.0,SW,13.8,-,0.00,,Overcast,230,2012-10-03 17:54:00
2:17 PM,68.0,62.6,83,30.03,10.0,SW,13.8,19.6,N/A,,Overcast,230,2012-10-03 18:17:00
2:37 PM,68.0,62.6,83,30.03,10.0,SW,13.8,-,N/A,,Overcast,230,2012-10-03 18:37:00
2:54 PM,68.0,62.1,81,30.04,10.0,SW,12.7,-,N/A,,Mostly Cloudy,230,2012-10-03 18:54:00
3:54 PM,68.0,60.1,76,30.05,10.0,WSW,13.8,-,N/A,,Overcast,250,2012-10-03 19:54:00
4:54 PM,71.1,59.0,66,30.05,10.0,WSW,6.9,-,N/A,,Mostly Cloudy,250,2012-10-03 20:54:00
5:54 PM,68.0,59.0,73,30.06,10.0,SSW,5.8,-,N/A,,Mostly Cloudy,210,2012-10-03 21:54:00
6:54 PM,66.0,57.9,75,30.07,10.0,SSW,4.6,-,N/A,,Mostly Cloudy,210,2012-10-03 22:54:00
7:54 PM,64.0,57.0,78,30.08,10.0,SSW,4.6,-,N/A,,Mostly Cloudy,200,2012-10-03 23:54:00
8:54 PM,64.0,57.0,78,30.10,10.0,SSW,3.5,-,N/A,,Mostly Cloudy,200,2012-10-04 00:54:00
9:54 PM,62.1,55.9,80,30.10,10.0,SSW,4.6,-,N/A,,Mostly Cloudy,210,2012-10-04 01:54:00
10:54 PM,64.0,57.9,80,30.13,10.0,WSW,9.2,-,N/A,,Mostly Cloudy,240,2012-10-04 02:54:00
11:54 PM,63.0,55.9,78,30.13,10.0,WSW,5.8,-,N/A,,Mostly Cloudy,250,2012-10-04 03:54:00